,,Stat5,,Stat1,,Stat2,,Stat3,,Stat4,,Wind1,,Wind1,
time,status,PA1M_AVG,status,PR1M_SUM,status,RH1M_AVG,status,SR1M_AVG,status,TA1M_AVG,status,W1dAve1m,status,W1sAve1m,
2002-12-28, 00:00:01,VALID,919.862,VALID,0,VALID,99.0669,VALID,0,VALID,18.287,VALID,37,VALID,0.580659,
2002-12-28, 00:01:00,VALID,919.862,VALID,0,VALID,99.0402,VALID,0,VALID,18.2738,VALID,39,VALID,0.72309,
2002-12-28, 00:02:00,VALID,919.869,VALID,0.2,VALID,98.9474,VALID,0,VALID,18.2549,VALID,35,VALID,0.972128,
2002-12-28, 00:03:00,VALID,919.866,VALID,0,VALID,98.9016,VALID,0.0339617,VALID,18.2251,VALID,33,VALID,0.360754,
2002-12-28, 00:04:00,VALID,919.861,VALID,0,VALID,98.9105,VALID,0.0339617,VALID,18.2286,VALID,35,VALID,0.436883,
2002-12-28, 00:05:00,VALID,919.832,VALID,0,VALID,98.9397,VALID,0.0169808,VALID,18.2321,VALID,37,VALID,0.843304,
2002-12-28, 00:06:00,VALID,919.768,VALID,0,VALID,98.9232,VALID,0,VALID,18.2318,VALID,41,VALID,1.30446,
2002-12-28, 00:07:00,VALID,919.736,VALID,0,VALID,98.88,VALID,0,VALID,18.2321,VALID,37,VALID,1.26601,
2002-12-28, 00:08:00,VALID,919.709,VALID,0,VALID,98.8889,VALID,0.0339617,VALID,18.2318,VALID,24,VALID,1.33108,
2002-12-28, 00:09:00,VALID,919.682,VALID,0,VALID,98.9105,VALID,0.0169808,VALID,18.2387,VALID,31,VALID,1.10093,
2002-12-28, 00:10:00,VALID,919.655,VALID,0,VALID,98.9626,VALID,0.0169808,VALID,18.2353,VALID,30,VALID,1.10204,
2002-12-28, 00:11:00,VALID,919.634,VALID,0,VALID,99.0313,VALID,0,VALID,18.2487,VALID,26,VALID,1.2574,
2002-12-28, 00:12:00,VALID,919.623,VALID,0,VALID,99.1101,VALID,0.0169808,VALID,18.2512,VALID,16,VALID,1.48376,
2002-12-28, 00:13:00,VALID,919.598,VALID,0,VALID,99.1496,VALID,0,VALID,18.2484,VALID,20,VALID,1.87841,
2002-12-28, 00:14:00,VALID,919.562,VALID,0,VALID,99.1979,VALID,0.0169808,VALID,18.2445,VALID,13,VALID,1.52945,
2002-12-28, 00:15:00,VALID,919.537,VALID,0,VALID,99.2615,VALID,0,VALID,18.245,VALID,17,VALID,1.20122,
2002-12-28, 00:16:00,VALID,919.54,VALID,0,VALID,99.306,VALID,0.0339617,VALID,18.2415,VALID,6,VALID,1.27676,
2002-12-28, 00:17:00,VALID,919.521,VALID,0.2,VALID,99.3327,VALID,0.0169808,VALID,18.2355,VALID,1,VALID,0.999777,
2002-12-28, 00:18:00,VALID,919.508,VALID,0,VALID,99.3644,VALID,0.0509425,VALID,18.2323,VALID,330,VALID,0.840402,
2002-12-28, 00:19:00,VALID,919.494,VALID,0,VALID,99.3962,VALID,0.0339617,VALID,18.2194,VALID,342,VALID,0.589227,
2002-12-28, 00:20:01,VALID,919.484,VALID,0,VALID,99.4191,VALID,0.0339617,VALID,18.2094,VALID,318,VALID,0.0986607,
2002-12-28, 00:21:00,VALID,919.481,VALID,0,VALID,99.4496,VALID,0,VALID,18.2159,VALID,325,VALID,0.159108,
2002-12-28, 00:22:00,VALID,919.469,VALID,0,VALID,99.4738,VALID,0,VALID,18.2131,VALID,17,VALID,1.31461,
2002-12-28, 00:23:00,VALID,919.432,VALID,0,VALID,99.4992,VALID,0,VALID,18.2291,VALID,16,VALID,1.06609,
2002-12-28, 00:24:00,VALID,919.448,VALID,0,VALID,99.5145,VALID,0,VALID,18.2224,VALID,346,VALID,0.669744,
2002-12-28, 00:25:00,VALID,919.456,VALID,0,VALID,99.5298,VALID,0.0169808,VALID,18.2,VALID,332,VALID,0.153783,
2002-12-28, 00:26:01,VALID,919.455,VALID,0,VALID,99.5234,VALID,0,VALID,18.1771,VALID,12,VALID,1.05695,
2002-12-28, 00:27:00,VALID,919.462,VALID,0,VALID,99.5298,VALID,-0.0169808,VALID,18.1843,VALID,19,VALID,1.23237,
2002-12-28, 00:28:00,VALID,919.448,VALID,0,VALID,99.5259,VALID,0.0169808,VALID,18.1289,VALID,26,VALID,2.21735,
2002-12-28, 00:29:00,VALID,919.44,VALID,0,VALID,99.5094,VALID,0,VALID,18.0968,VALID,12,VALID,2.55068,
2002-12-28, 00:30:00,VALID,919.423,VALID,0,VALID,99.5247,VALID,-0.0169808,VALID,18.0641,VALID,17,VALID,2.33203,
2002-12-28, 00:31:00,VALID,919.432,VALID,0,VALID,99.5323,VALID,-0.0169808,VALID,18.0581,VALID,12,VALID,1.52679,
2002-12-28, 00:32:00,VALID,919.404,VALID,0,VALID,99.5552,VALID,0,VALID,18.0486,VALID,11,VALID,1.71853,
2002-12-28, 00:33:00,VALID,919.398,VALID,0,VALID,99.5692,VALID,0.0169808,VALID,18.0382,VALID,8,VALID,1.1838,
2002-12-28, 00:34:01,VALID,919.402,VALID,0,VALID,99.5959,VALID,0.0339617,VALID,18.0385,VALID,336,VALID,0.6125,
2002-12-28, 00:35:00,VALID,919.397,VALID,0,VALID,99.6188,VALID,0,VALID,18.0615,VALID,346,VALID,0.279916,
2002-12-28, 00:36:00,VALID,919.391,VALID,0,VALID,99.6302,VALID,0,VALID,18.0581,VALID,21,VALID,0.204181,
2002-12-28, 00:37:00,VALID,919.403,VALID,0,VALID,99.6493,VALID,-0.0339617,VALID,18.0747,VALID,25,VALID,0.16723,
2002-12-28, 00:38:00,VALID,919.408,VALID,0,VALID,99.6696,VALID,-0.101885,VALID,18.0689,VALID,17,VALID,1.25,
2002-12-28, 00:39:01,VALID,919.4,VALID,0,VALID,99.6493,VALID,-0.101885,VALID,18.0368,VALID,16,VALID,0.641242,
2002-12-28, 00:40:01,VALID,919.409,VALID,0,VALID,99.6506,VALID,-0.0849042,VALID,18.0497,VALID,13,VALID,0.91509,
2002-12-28, 00:41:00,VALID,919.418,VALID,0,VALID,99.6735,VALID,-0.101885,VALID,18.0654,VALID,9,VALID,0.719351,
2002-12-28, 00:42:00,VALID,919.404,VALID,0,VALID,99.6747,VALID,-0.101885,VALID,18.0652,VALID,356,VALID,0.390625,
2002-12-28, 00:43:01,VALID,919.408,VALID,0,VALID,99.6951,VALID,-0.101885,VALID,18.0657,VALID,17,VALID,0.0635557,
2002-12-28, 00:44:00,VALID,919.398,VALID,0,VALID,99.7027,VALID,-0.101885,VALID,18.0917,VALID,19,VALID,0.610547,
2002-12-28, 00:45:00,VALID,919.381,VALID,0,VALID,99.7218,VALID,-0.101885,VALID,18.1305,VALID,24,VALID,0.793973,
2002-12-28, 00:46:00,VALID,919.371,VALID,0.2,VALID,99.7205,VALID,-0.101885,VALID,18.1534,VALID,22,VALID,0.866518,
2002-12-28, 00:47:00,VALID,919.352,VALID,0,VALID,99.7281,VALID,-0.101885,VALID,18.1561,VALID,17,VALID,0.678043,
2002-12-28, 00:48:01,VALID,919.332,VALID,0,VALID,99.7307,VALID,-0.101885,VALID,18.1534,VALID,359,VALID,0.0191964,
2002-12-28, 00:49:00,VALID,919.346,VALID,0,VALID,99.7218,VALID,-0.0849042,VALID,18.1238,VALID,268,VALID,0.328506,
2002-12-28, 00:50:01,VALID,919.341,VALID,0,VALID,99.7052,VALID,-0.101885,VALID,18.053,VALID,234,VALID,0.627956,
2002-12-28, 00:51:00,VALID,919.332,VALID,0,VALID,99.6849,VALID,-0.101885,VALID,17.9981,VALID,221,VALID,0.177154,
2002-12-28, 00:52:00,VALID,919.303,VALID,0,VALID,99.6785,VALID,-0.101885,VALID,17.969,VALID,222,VALID,0.000473485,
2002-12-28, 00:53:00,VALID,919.268,VALID,0.2,VALID,99.6951,VALID,-0.101885,VALID,17.9561,VALID,1,VALID,0.576069,
2002-12-28, 00:54:01,VALID,919.254,VALID,0,VALID,99.704,VALID,-0.0849042,VALID,17.9595,VALID,18,VALID,1.28577,
2002-12-28, 00:55:01,VALID,919.233,VALID,0,VALID,99.7065,VALID,-0.101885,VALID,17.9526,VALID,15,VALID,1.14022,
2002-12-28, 00:56:00,VALID,919.224,VALID,0,VALID,99.7141,VALID,-0.101885,VALID,17.9392,VALID,16,VALID,0.691106,
2002-12-28, 00:57:00,VALID,919.231,VALID,0,VALID,99.723,VALID,-0.101885,VALID,17.9332,VALID,12,VALID,0.0356841,
2002-12-28, 00:58:00,VALID,919.23,VALID,0,VALID,99.7307,VALID,-0.101885,VALID,17.9106,VALID,12,VALID,0,
2002-12-28, 00:59:00,VALID,919.22,VALID,0,VALID,99.7345,VALID,-0.101885,VALID,17.9078,VALID,12,VALID,0,
2002-12-28, 01:00:00,VALID,919.198,VALID,0,VALID,99.7319,VALID,-0.101885,VALID,17.8915,VALID,12,VALID,0.119196,
2002-12-28, 01:01:00,VALID,919.175,VALID,0.2,VALID,99.7243,VALID,-0.118866,VALID,17.8753,VALID,6,VALID,0.528783,
2002-12-28, 01:02:01,VALID,919.168,VALID,0,VALID,99.7459,VALID,-0.0679233,VALID,17.8751,VALID,17,VALID,0.995313,
2002-12-28, 01:03:00,VALID,919.131,VALID,0,VALID,99.7447,VALID,-0.101885,VALID,17.8885,VALID,22,VALID,1.31059,
2002-12-28, 01:04:00,VALID,919.114,VALID,0,VALID,99.7548,VALID,-0.0849042,VALID,17.8917,VALID,20,VALID,1.27217,
2002-12-28, 01:05:00,VALID,919.089,VALID,0,VALID,99.7625,VALID,-0.101885,VALID,17.8917,VALID,29,VALID,1.16702,
2002-12-28, 01:06:00,VALID,919.065,VALID,0,VALID,99.7548,VALID,-0.101885,VALID,17.8785,VALID,28,VALID,1.46378,
2002-12-28, 01:07:00,VALID,919.045,VALID,0,VALID,99.7485,VALID,-0.0339617,VALID,17.8518,VALID,21,VALID,1.4338,
2002-12-28, 01:08:01,VALID,919.015,VALID,0,VALID,99.7459,VALID,0.0339617,VALID,17.8285,VALID,21,VALID,1.23828,
2002-12-28, 01:09:00,VALID,919.01,VALID,0,VALID,99.7497,VALID,0.0849042,VALID,17.8251,VALID,12,VALID,1.14042,
2002-12-28, 01:10:00,VALID,919.011,VALID,0,VALID,99.7434,VALID,0.0679233,VALID,17.819,VALID,32,VALID,0.746394,
2002-12-28, 01:11:00,VALID,919.007,VALID,0.2,VALID,99.7459,VALID,0.0679233,VALID,17.8094,VALID,19,VALID,0.606208,
2002-12-28, 01:12:00,VALID,919.013,VALID,0,VALID,99.7599,VALID,0.0679233,VALID,17.7992,VALID,18,VALID,0.170117,
2002-12-28, 01:13:00,VALID,919.014,VALID,0,VALID,99.7574,VALID,0.0679233,VALID,17.7932,VALID,18,VALID,0,
2002-12-28, 01:14:00,VALID,919.012,VALID,0,VALID,99.7612,VALID,0.101885,VALID,17.7997,VALID,22,VALID,0.464286,
2002-12-28, 01:15:00,VALID,919.01,VALID,0,VALID,99.7612,VALID,0.0339617,VALID,17.7867,VALID,21,VALID,0.220395,
2002-12-28, 01:16:01,VALID,919.02,VALID,0,VALID,99.7587,VALID,0.0509425,VALID,17.7351,VALID,10,VALID,0.0618304,
2002-12-28, 01:17:00,VALID,919.021,VALID,0,VALID,99.7459,VALID,0.0339617,VALID,17.7023,VALID,10,VALID,0,
2002-12-28, 01:18:00,VALID,919.03,VALID,0,VALID,99.751,VALID,0.0169808,VALID,17.6965,VALID,10,VALID,0,
2002-12-28, 01:19:00,VALID,919.007,VALID,0,VALID,99.7587,VALID,0.0509425,VALID,17.6864,VALID,10,VALID,0.0806588,
2002-12-28, 01:20:00,VALID,918.986,VALID,0,VALID,99.7561,VALID,0.0339617,VALID,17.7097,VALID,10,VALID,0.397727,
2002-12-28, 01:21:01,VALID,918.979,VALID,0,VALID,99.7688,VALID,0.0679233,VALID,17.7254,VALID,9,VALID,0.194696,
2002-12-28, 01:22:01,VALID,918.995,VALID,0,VALID,99.7714,VALID,0.0509425,VALID,17.706,VALID,234,VALID,0.462171,
2002-12-28, 01:23:00,VALID,919.016,VALID,0.2,VALID,99.7587,VALID,0.0169808,VALID,17.6472,VALID,232,VALID,0.686699,
2002-12-28, 01:24:00,VALID,919.027,VALID,0,VALID,99.7625,VALID,0.0509425,VALID,17.6448,VALID,230,VALID,0.542468,
2002-12-28, 01:25:01,VALID,919.016,VALID,0,VALID,99.7599,VALID,0.0339617,VALID,17.622,VALID,229,VALID,0.448269,
2002-12-28, 01:26:00,VALID,919.05,VALID,0,VALID,99.7688,VALID,0,VALID,17.6317,VALID,229,VALID,0.170508,
2002-12-28, 01:27:00,VALID,919.073,VALID,0,VALID,99.7765,VALID,0.0169808,VALID,17.6476,VALID,229,VALID,0.00803571,
2002-12-28, 01:28:00,VALID,919.08,VALID,0,VALID,99.7993,VALID,0.0679233,VALID,17.664,VALID,229,VALID,0,
2002-12-28, 01:29:00,VALID,919.083,VALID,0,VALID,99.8019,VALID,0.0509425,VALID,17.6737,VALID,224,VALID,0.0865543,
2002-12-28, 01:30:01,VALID,919.089,VALID,0.2,VALID,99.7993,VALID,0.0169808,VALID,17.664,VALID,221,VALID,0.451116,
2002-12-28, 01:31:00,VALID,919.086,VALID,0,VALID,99.7917,VALID,0.0169808,VALID,17.6255,VALID,263,VALID,0.534489,
2002-12-28, 01:32:01,VALID,919.068,VALID,0,VALID,99.8006,VALID,0.0509425,VALID,17.6453,VALID,20,VALID,0.520693,
2002-12-28, 01:33:00,VALID,919.096,VALID,0,VALID,99.8108,VALID,0.0339617,VALID,17.6347,VALID,21,VALID,0.180321,
2002-12-28, 01:34:00,VALID,919.112,VALID,0,VALID,99.8146,VALID,0.0169808,VALID,17.6513,VALID,28,VALID,0.8866,
2002-12-28, 01:35:00,VALID,919.156,VALID,0,VALID,99.8171,VALID,0.0169808,VALID,17.6578,VALID,23,VALID,0.280222,
2002-12-28, 01:36:01,VALID,919.187,VALID,0.2,VALID,99.8133,VALID,0,VALID,17.6518,VALID,75,VALID,0.537829,
2002-12-28, 01:37:01,VALID,919.217,VALID,0,VALID,99.7993,VALID,0.0169808,VALID,17.5869,VALID,208,VALID,0.966947,
2002-12-28, 01:38:01,VALID,919.205,VALID,0,VALID,99.7815,VALID,0.0339617,VALID,17.5025,VALID,220,VALID,0.277644,
2002-12-28, 01:39:00,VALID,919.179,VALID,0.2,VALID,99.7815,VALID,0.0169808,VALID,17.5092,VALID,220,VALID,0.184755,
2002-12-28, 01:40:00,VALID,919.092,VALID,0,VALID,99.7854,VALID,0.0339617,VALID,17.5094,VALID,23,VALID,1.2748,
2002-12-28, 01:41:00,VALID,919.043,VALID,0.2,VALID,99.7815,VALID,0.0169808,VALID,17.5094,VALID,27,VALID,1.40982,
2002-12-28, 01:42:00,VALID,919.036,VALID,0,VALID,99.8006,VALID,0.0169808,VALID,17.5161,VALID,13,VALID,1.00759,
2002-12-28, 01:43:00,VALID,919.051,VALID,0.2,VALID,99.8057,VALID,0,VALID,17.5096,VALID,250,VALID,0.29009,
2002-12-28, 01:44:01,VALID,919.079,VALID,0,VALID,99.8006,VALID,0,VALID,17.5064,VALID,72,VALID,0.282589,
2002-12-28, 01:45:00,VALID,919.057,VALID,0.2,VALID,99.8146,VALID,0.0509425,VALID,17.5025,VALID,32,VALID,1.05373,
2002-12-28, 01:46:01,VALID,919.004,VALID,0.2,VALID,99.8019,VALID,0,VALID,17.4734,VALID,11,VALID,1.09607,
2002-12-28, 01:47:01,VALID,918.962,VALID,0.2,VALID,99.8082,VALID,0,VALID,17.4446,VALID,348,VALID,0.990921,
2002-12-28, 01:48:00,VALID,918.937,VALID,0,VALID,99.8044,VALID,0.0169808,VALID,17.4287,VALID,12,VALID,1.45762,
2002-12-28, 01:49:00,VALID,918.88,VALID,0.2,VALID,99.8133,VALID,0,VALID,17.4455,VALID,29,VALID,0.504223,
2002-12-28, 01:50:01,VALID,918.897,VALID,0,VALID,99.8146,VALID,0.0169808,VALID,17.4455,VALID,282,VALID,0.658306,
2002-12-28, 01:51:00,VALID,918.993,VALID,0.2,VALID,99.8273,VALID,0,VALID,17.4254,VALID,223,VALID,1.16526,
2002-12-28, 01:52:01,VALID,918.977,VALID,0,VALID,99.8171,VALID,0,VALID,17.4192,VALID,194,VALID,0.503005,
2002-12-28, 01:53:00,VALID,918.892,VALID,0.2,VALID,99.8235,VALID,0.0679233,VALID,17.3994,VALID,177,VALID,0.0819257,
2002-12-28, 01:54:00,VALID,918.856,VALID,0,VALID,99.8273,VALID,0.0339617,VALID,17.416,VALID,22,VALID,1.05469,
2002-12-28, 01:55:01,VALID,918.798,VALID,0.2,VALID,99.8311,VALID,0.0339617,VALID,17.4123,VALID,3,VALID,1.49509,
2002-12-28, 01:56:01,VALID,918.8,VALID,0,VALID,99.8388,VALID,0.0509425,VALID,17.4218,VALID,316,VALID,1.0904,
2002-12-28, 01:57:01,VALID,918.859,VALID,0.2,VALID,99.8451,VALID,0.0339617,VALID,17.4093,VALID,216,VALID,0.692845,
2002-12-28, 01:58:01,VALID,918.876,VALID,0,VALID,99.8502,VALID,0.0509425,VALID,17.4,VALID,168,VALID,0.446205,
2002-12-28, 01:59:01,VALID,918.817,VALID,0.2,VALID,99.8426,VALID,0.0339617,VALID,17.4093,VALID,228,VALID,0.182736,
2002-12-28, 02:00:01,VALID,918.797,VALID,0.2,VALID,99.854,VALID,0.0169808,VALID,17.4226,VALID,141,VALID,0.0660895,
2002-12-28, 02:01:01,VALID,918.771,VALID,0,VALID,99.8578,VALID,0.0339617,VALID,17.4185,VALID,72,VALID,0.027027,
2002-12-28, 02:02:01,VALID,918.754,VALID,0.2,VALID,99.8782,VALID,0.0509425,VALID,17.4545,VALID,31,VALID,0.799953,
2002-12-28, 02:03:01,VALID,918.704,VALID,0.2,VALID,99.8807,VALID,0.0679233,VALID,17.4612,VALID,23,VALID,1.45909,
2002-12-28, 02:04:01,VALID,918.707,VALID,0.2,VALID,99.8769,VALID,0.0509425,VALID,17.4704,VALID,22,VALID,2.09539,
2002-12-28, 02:05:01,VALID,918.686,VALID,0,VALID,99.8769,VALID,0.0509425,VALID,17.4967,VALID,12,VALID,1.36478,
2002-12-28, 02:06:01,VALID,918.726,VALID,0.2,VALID,99.8756,VALID,0.0339617,VALID,17.4704,VALID,300,VALID,0.279647,
2002-12-28, 02:07:01,VALID,918.741,VALID,0,VALID,99.8706,VALID,0,VALID,17.4519,VALID,331,VALID,0.156461,
2002-12-28, 02:08:01,VALID,918.743,VALID,0,VALID,99.8795,VALID,-0.0169808,VALID,17.4453,VALID,10,VALID,0.753711,
2002-12-28, 02:09:01,VALID,918.724,VALID,0.2,VALID,99.8947,VALID,0,VALID,17.4614,VALID,16,VALID,0.740848,
2002-12-28, 02:10:01,VALID,918.706,VALID,0,VALID,99.8909,VALID,-0.0169808,VALID,17.4679,VALID,21,VALID,0.481473,
2002-12-28, 02:11:01,VALID,918.697,VALID,0,VALID,99.8985,VALID,0,VALID,17.481,VALID,5,VALID,0.918997,
2002-12-28, 02:12:01,VALID,918.673,VALID,0,VALID,99.8934,VALID,-0.0169808,VALID,17.4653,VALID,7,VALID,1.03348,
2002-12-28, 02:13:01,VALID,918.645,VALID,0,VALID,99.896,VALID,0,VALID,17.4326,VALID,19,VALID,0.820694,
2002-12-28, 02:14:01,VALID,918.643,VALID,0.2,VALID,99.8858,VALID,-0.0339617,VALID,17.4321,VALID,18,VALID,0.994932,
2002-12-28, 02:15:01,VALID,918.64,VALID,0,VALID,99.8909,VALID,-0.0509425,VALID,17.4356,VALID,358,VALID,0.800042,
2002-12-28, 02:16:00,VALID,918.615,VALID,0,VALID,99.8858,VALID,-0.0169808,VALID,17.4132,VALID,8,VALID,1.43655,
2002-12-28, 02:17:00,VALID,918.597,VALID,0,VALID,99.882,VALID,0,VALID,17.3934,VALID,14,VALID,1.25843,
2002-12-28, 02:18:00,VALID,918.587,VALID,0,VALID,99.8782,VALID,-0.0509425,VALID,17.4039,VALID,13,VALID,0.679276,
2002-12-28, 02:19:00,VALID,918.591,VALID,0,VALID,99.8922,VALID,0.0169808,VALID,17.371,VALID,22,VALID,0.44992,
2002-12-28, 02:20:00,VALID,918.587,VALID,0.2,VALID,99.882,VALID,-0.0339617,VALID,17.368,VALID,16,VALID,0.824519,
2002-12-28, 02:21:00,VALID,918.583,VALID,0,VALID,99.8947,VALID,-0.101885,VALID,17.3749,VALID,18,VALID,0.771115,
2002-12-28, 02:22:00,VALID,918.576,VALID,0,VALID,99.882,VALID,-0.0509425,VALID,17.3458,VALID,14,VALID,1.07207,
2002-12-28, 02:23:00,VALID,918.552,VALID,0,VALID,99.8807,VALID,-0.0169808,VALID,17.3294,VALID,25,VALID,1.21741,
2002-12-28, 02:24:00,VALID,918.546,VALID,0,VALID,99.8833,VALID,-0.0339617,VALID,17.3294,VALID,19,VALID,1.10536,
2002-12-28, 02:25:00,VALID,918.552,VALID,0,VALID,99.8884,VALID,-0.0679233,VALID,17.3262,VALID,17,VALID,0.87315,
2002-12-28, 02:26:00,VALID,918.542,VALID,0,VALID,99.882,VALID,-0.0339617,VALID,17.2775,VALID,3,VALID,1.69241,
2002-12-28, 02:27:00,VALID,918.537,VALID,0,VALID,99.8731,VALID,-0.0169808,VALID,17.2448,VALID,21,VALID,1.86585,
2002-12-28, 02:28:00,VALID,918.466,VALID,0,VALID,99.8769,VALID,-0.0509425,VALID,17.239,VALID,18,VALID,1.17969,
2002-12-28, 02:29:00,VALID,918.476,VALID,0,VALID,99.8756,VALID,-0.0169808,VALID,17.2166,VALID,18,VALID,2.21326,
2002-12-28, 02:30:00,VALID,918.432,VALID,0,VALID,99.8706,VALID,-0.0509425,VALID,17.1809,VALID,14,VALID,2.04759,
2002-12-28, 02:31:00,VALID,918.44,VALID,0,VALID,99.8718,VALID,-0.0169808,VALID,17.1781,VALID,15,VALID,1.47081,
2002-12-28, 02:32:00,VALID,918.498,VALID,0.2,VALID,99.8769,VALID,-0.0849042,VALID,17.1518,VALID,13,VALID,0.35773,
2002-12-28, 02:33:00,VALID,918.547,VALID,0,VALID,99.8604,VALID,-0.0339617,VALID,17.1389,VALID,69,VALID,0.439904,
2002-12-28, 02:34:00,VALID,918.521,VALID,0,VALID,99.8744,VALID,-0.0679233,VALID,17.1234,VALID,144,VALID,0.218349,
2002-12-28, 02:35:00,VALID,918.497,VALID,0,VALID,99.8718,VALID,-0.0169808,VALID,17.1033,VALID,87,VALID,0.671242,
2002-12-28, 02:36:00,VALID,918.422,VALID,0,VALID,99.882,VALID,-0.0339617,VALID,17.1296,VALID,9,VALID,1.03125,
2002-12-28, 02:37:00,VALID,918.407,VALID,0,VALID,99.8973,VALID,-0.0169808,VALID,17.1257,VALID,15,VALID,0.157143,
2002-12-28, 02:38:00,VALID,918.413,VALID,0,VALID,99.8985,VALID,-0.0169808,VALID,17.1294,VALID,169,VALID,0.318304,
2002-12-28, 02:39:00,VALID,918.382,VALID,0,VALID,99.9087,VALID,-0.0849042,VALID,17.1294,VALID,283,VALID,0.262336,
2002-12-28, 02:40:00,VALID,918.371,VALID,0.2,VALID,99.9176,VALID,-0.0339617,VALID,17.1356,VALID,343,VALID,0.170089,
2002-12-28, 02:41:00,VALID,918.346,VALID,0,VALID,99.924,VALID,-0.0339617,VALID,17.1423,VALID,351,VALID,0.482469,
2002-12-28, 02:42:00,VALID,918.333,VALID,0,VALID,99.9214,VALID,-0.0339617,VALID,17.1555,VALID,17,VALID,0.722762,
2002-12-28, 02:43:00,VALID,918.319,VALID,0,VALID,99.9163,VALID,-0.0169808,VALID,17.1455,VALID,19,VALID,1.34692,
2002-12-28, 02:44:00,VALID,918.322,VALID,0,VALID,99.9341,VALID,-0.0509425,VALID,17.1455,VALID,18,VALID,1.38897,
2002-12-28, 02:45:00,VALID,918.295,VALID,0,VALID,99.9252,VALID,-0.0169808,VALID,17.1326,VALID,27,VALID,0.931332,
2002-12-28, 02:46:00,VALID,918.291,VALID,0,VALID,99.9176,VALID,-0.0679233,VALID,17.11,VALID,15,VALID,1.02097,
2002-12-28, 02:47:00,VALID,918.284,VALID,0,VALID,99.9354,VALID,-0.0849042,VALID,17.1397,VALID,21,VALID,1.23137,
2002-12-28, 02:48:00,VALID,918.257,VALID,0,VALID,99.9367,VALID,-0.0169808,VALID,17.1488,VALID,24,VALID,1.51462,
2002-12-28, 02:49:00,VALID,918.213,VALID,0,VALID,99.943,VALID,-0.0169808,VALID,17.1582,VALID,20,VALID,1.29962,
2002-12-28, 02:50:00,VALID,918.186,VALID,0.2,VALID,99.9481,VALID,0,VALID,17.1585,VALID,358,VALID,1.33301,
2002-12-28, 02:51:00,VALID,918.124,VALID,0,VALID,99.9456,VALID,0,VALID,17.1197,VALID,8,VALID,0.943973,
2002-12-28, 02:52:00,VALID,918.125,VALID,0,VALID,99.9392,VALID,0,VALID,17.1163,VALID,9,VALID,0.771652,
2002-12-28, 02:53:00,VALID,918.103,VALID,0,VALID,99.9316,VALID,0.0169808,VALID,17.0999,VALID,18,VALID,1.45539,
2002-12-28, 02:54:00,VALID,918.053,VALID,0,VALID,99.9367,VALID,0,VALID,17.1128,VALID,338,VALID,1.17969,
2002-12-28, 02:55:00,VALID,918.076,VALID,0,VALID,99.9329,VALID,0.0169808,VALID,17.0676,VALID,314,VALID,0.923018,
2002-12-28, 02:56:00,VALID,918.077,VALID,0,VALID,99.9303,VALID,0.0169808,VALID,17.0319,VALID,328,VALID,0.780405,
2002-12-28, 02:57:00,VALID,918.069,VALID,0,VALID,99.9341,VALID,0.0169808,VALID,17.042,VALID,308,VALID,0.360853,
2002-12-28, 02:58:00,VALID,918.11,VALID,0,VALID,99.9532,VALID,0.0169808,VALID,17.0614,VALID,345,VALID,0.347301,
2002-12-28, 02:59:00,VALID,918.092,VALID,0,VALID,99.9494,VALID,0.0169808,VALID,17.0969,VALID,19,VALID,0.944696,
2002-12-28, 03:00:00,VALID,918.063,VALID,0,VALID,99.957,VALID,0,VALID,17.1458,VALID,29,VALID,0.690584,
2002-12-28, 03:01:00,VALID,918.056,VALID,0,VALID,99.9672,VALID,0,VALID,17.1677,VALID,12,VALID,0.66266,
2002-12-28, 03:02:00,VALID,918.035,VALID,0,VALID,99.9634,VALID,0,VALID,17.1774,VALID,356,VALID,0.461939,
2002-12-28, 03:03:00,VALID,918.071,VALID,0.2,VALID,99.9685,VALID,0.0169808,VALID,17.2106,VALID,45,VALID,0.266047,
2002-12-28, 03:04:00,VALID,918.083,VALID,0,VALID,99.9659,VALID,0.0169808,VALID,17.1774,VALID,39,VALID,0.630273,
2002-12-28, 03:05:00,VALID,918.088,VALID,0,VALID,99.9774,VALID,0.0169808,VALID,17.1839,VALID,18,VALID,0.474107,
2002-12-28, 03:06:00,VALID,918.1,VALID,0,VALID,99.9697,VALID,-0.0169808,VALID,17.197,VALID,16,VALID,0.00223214,
2002-12-28, 03:07:00,VALID,918.119,VALID,0,VALID,99.9685,VALID,0.0169808,VALID,17.1908,VALID,16,VALID,0.0148026,
2002-12-28, 03:08:00,VALID,918.127,VALID,0,VALID,99.9735,VALID,0,VALID,17.194,VALID,16,VALID,0.0933036,
2002-12-28, 03:09:00,VALID,918.12,VALID,0,VALID,99.971,VALID,0,VALID,17.2,VALID,108,VALID,0.204459,
2002-12-28, 03:10:00,VALID,918.112,VALID,0,VALID,99.9735,VALID,0,VALID,17.197,VALID,56,VALID,0.69489,
2002-12-28, 03:11:00,VALID,918.091,VALID,0,VALID,99.9797,VALID,0,VALID,17.2168,VALID,14,VALID,0.814611,
2002-12-28, 03:12:00,VALID,918.113,VALID,0,VALID,99.9799,VALID,0,VALID,17.2489,VALID,7,VALID,0.304214,
2002-12-28, 03:13:00,VALID,918.154,VALID,0,VALID,99.9797,VALID,0,VALID,17.2521,VALID,29,VALID,0.226768,
2002-12-28, 03:14:00,VALID,918.128,VALID,0.2,VALID,99.9847,VALID,0,VALID,17.2582,VALID,2,VALID,0.766859,
2002-12-28, 03:15:00,VALID,918.105,VALID,0,VALID,99.9797,VALID,0,VALID,17.2745,VALID,11,VALID,0.786458,
2002-12-28, 03:16:00,VALID,918.108,VALID,0,VALID,99.986,VALID,0,VALID,17.2777,VALID,23,VALID,0.0865385,
2002-12-28, 03:17:00,VALID,918.089,VALID,0,VALID,99.9812,VALID,0.0169808,VALID,17.2687,VALID,24,VALID,0.522593,
2002-12-28, 03:18:00,VALID,918.055,VALID,0,VALID,99.9888,VALID,0,VALID,17.2683,VALID,19,VALID,0.939453,
2002-12-28, 03:19:00,VALID,918.006,VALID,0,VALID,99.9873,VALID,0,VALID,17.2711,VALID,17,VALID,1.74955,
2002-12-28, 03:20:00,VALID,918.002,VALID,0,VALID,99.9825,VALID,0.0169808,VALID,17.2782,VALID,17,VALID,1.60089,
2002-12-28, 03:21:00,VALID,917.989,VALID,0,VALID,99.9921,VALID,0.0169808,VALID,17.2747,VALID,18,VALID,1.94922,
2002-12-28, 03:22:00,VALID,917.988,VALID,0,VALID,99.987,VALID,0,VALID,17.2711,VALID,4,VALID,1.30625,
2002-12-28, 03:23:00,VALID,917.992,VALID,0,VALID,99.9837,VALID,-0.0169808,VALID,17.2616,VALID,17,VALID,0.558499,
2002-12-28, 03:24:00,VALID,917.992,VALID,0,VALID,99.986,VALID,0.0339617,VALID,17.2551,VALID,353,VALID,0.340372,
2002-12-28, 03:25:00,VALID,917.999,VALID,0.2,VALID,99.9837,VALID,0.0169808,VALID,17.2452,VALID,45,VALID,0.366765,
2002-12-28, 03:26:00,VALID,918.001,VALID,0,VALID,99.9886,VALID,0,VALID,17.2485,VALID,349,VALID,0.768466,
2002-12-28, 03:27:00,VALID,918.02,VALID,0,VALID,99.9837,VALID,0,VALID,17.242,VALID,327,VALID,0.0485197,
2002-12-28, 03:28:00,VALID,918.001,VALID,0,VALID,99.9947,VALID,0.0169808,VALID,17.2648,VALID,13,VALID,1.41262,
2002-12-28, 03:29:00,VALID,917.97,VALID,0,VALID,99.9931,VALID,0.0169808,VALID,17.2747,VALID,12,VALID,1.54147,
2002-12-28, 03:30:00,VALID,917.934,VALID,0,VALID,99.9903,VALID,0.0169808,VALID,17.2777,VALID,18,VALID,1.13582,
2002-12-28, 03:31:00,VALID,917.924,VALID,0,VALID,99.9944,VALID,-0.0169808,VALID,17.2907,VALID,14,VALID,1.42884,
2002-12-28, 03:32:00,VALID,917.884,VALID,0,VALID,99.9809,VALID,0,VALID,17.2745,VALID,1,VALID,1.2418,
2002-12-28, 03:33:00,VALID,917.867,VALID,0,VALID,99.9934,VALID,0,VALID,17.2551,VALID,332,VALID,0.526563,
2002-12-28, 03:34:00,VALID,917.857,VALID,0,VALID,99.986,VALID,0,VALID,17.2715,VALID,11,VALID,0.504911,